Probability
19 23 32 29 16 13 10 19 16 26 23 19 13 10 13 10 16 13 23 19 23 26 26 23 29 29 29 35 32 32 32 26 23 23 19 13 16 19 19 16 19 16 16
29 26 26 32 23 19 13 10 13 29 32 19 16 19 13 10 19 16 19 19 26 23 26 26 26 26 32 35 35 39 35 35 23 23 19 16 13 13 13 10 10 6 6
35 32 16 19 16 19 16 19 19 29 29 16 16 16 13 10 16 16 16 16 19 23 29 32 39 39 35 32 35 35 32 32 26 26 19 23 19 13 13 10 6 10 6
35 32 23 16 23 16 13 19 23 16 19 19 23 19 10 23 13 16 16 16 19 19 26 29 32 32 32 35 35 35 35 35 26 19 19 19 23 26 19 10 3 6 6
39 35 35 32 32 16 13 13 13 16 16 23 13 16 13 13 13 13 13 16 19 19 23 26 32 32 29 35 35 29 26 29 26 26 26 19 16 23 16 13 6 10 6
35 35 35 39 23 16 19 19 19 23 23 29 3 6 10 13 13 13 10 13 13 16 16 19 23 23 26 26 32 29 29 26 29 26 26 23 23 19 13 10 10 13 3
39 42 32 39 32 23 23 19 19 16 13 19 10 10 6 13 16 19 19 13 10 16 16 19 23 23 26 23 19 29 26 26 26 23 29 23 26 16 10 10 10 10 6
39 29 45 32 32 35 29 29 29 19 19 13 16 10 6 13 16 6 13 10 6 10 10 16 19 23 26 23 19 19 26 26 19 23 26 23 23 26 16 10 10 10 6
35 35 32 29 35 35 29 32 35 26 23 16 13 16 13 13 3 6 13 3 6 10 10 10 13 23 23 29 26 13 16 16 13 16 29 29 23 23 19 13 13 10 3
32 29 29 29 29 23 32 23 26 29 29 23 19 23 16 16 13 10 6 10 6 10 10 3 3 23 26 19 23 6 6 6 6 10 19 23 29 23 13 10 6 10 6
32 26 29 29 26 19 26 29 35 26 23 23 13 16 16 16 16 13 13 3 6 10 10 16 6 16 13 16 29 13 6 0 0 6 10 10 16 19 19 13 6 10 10
35 26 26 32 32 26 26 26 29 23 23 29 19 19 13 10 13 16 16 19 13 10 10 13 13 16 23 10 10 3 3 0 0 0 3 6 6 10 10 13 13 10 10
29 32 26 32 29 32 23 26 26 26 29 29 23 23 23 19 16 13 10 10 16 13 13 13 13 16 13 16 10 3 3 0 0 0 0 0 3 3 3 3 10 10 16
26 32 32 29 32 29 23 26 23 26 29 26 19 23 23 19 16 10 10 10 13 13 13 13 6 13 16 16 13 3 6 0 0 0 0 0 0 3 3 3 3 3 6
26 29 32 35 32 29 32 26 23 26 26 19 19 19 16 19 16 16 13 16 13 13 13 16 13 19 16 23 10 13 19 0 0 0 0 0 0 0 0 3 3 3 3
26 26 26 32 32 29 29 29 23 23 16 16 19 16 16 16 16 16 19 13 13 6 10 13 26 13 26 6 6 19 23 0 0 0 0 0 0 0 0 0 0 0 0
23 26 23 19 23 19 23 23 13 13 13 13 13 10 16 23 19 16 16 13 10 6 6 13 19 19 26 29 19 19 13 16 6 0 0 0 0 0 0 0 0 0 0
23 23 23 23 23 19 19 19 13 6 10 6 10 13 13 10 16 16 19 13 13 13 10 16 19 23 23 26 29 26 10 0 3 0 0 0 0 0 0 0 0 0 0
23 23 23 26 19 16 19 13 13 13 10 10 13 10 13 10 10 13 16 19 16 13 13 13 16 19 10 16 16 23 10 16 0 0 0 0 0 0 0 0 0 0 0
23 23 19 19 19 13 13 19 16 16 16 16 16 13 13 13 10 10 10 10 13 13 13 6 16 13 10 10 13 16 19 19 13 3 0 0 0 0 0 0 0 0 0
16 13 19 16 19 13 6 13 16 10 16 19 19 19 16 6 6 6 3 6 3 13 13 10 13 13 10 13 13 13 16 19 16 16 13 6 6 6 3 0 0 0 0
13 13 10 10 13 10 0 0 6 13 16 13 13 16 10 6 0 0 0 0 0 3 13 10 10 10 13 13 13 10 13 13 13 13 13 6 6 6 6 6 0 0 0
13 13 10 10 10 6 0 0 0 6 16 19 16 19 6 6 3 6 0 0 0 0 0 6 13 10 10 10 10 10 10 6 10 10 10 3 6 3 0 0 0 0 0
16 10 10 10 13 6 3 0 0 0 10 13 13 16 13 10 6 6 3 3 3 3 0 0 6 10 6 10 10 10 10 6 3 10 3 6 10 3 0 0 0 0 0
13 10 10 10 13 6 3 0 0 6 6 6 10 10 6 6 6 0 0 10 3 6 0 0 0 0 0 0 0 6 6 6 6 3 6 3 3 3 3 3 0 0 0
13 10 10 10 13 10 3 0 0 6 6 10 6 10 3 3 3 0 3 10 10 10 3 3 0 0 0 0 0 3 6 6 3 0 3 3 3 3 0 0 0 0 0
Height
5863 5863 5863 5863 5862 5862 5862 5862 5863 5863 5863 5863 5862 5862 5863 5863 5864 5864 5865 5865 5866 5866 5866 5867 5867 5867 5868 5868 5868 5869 5869 5870 5870 5870 5870 5871 5871 5871 5871 5872 5872 5872 5872
5862 5862 5861 5861 5861 5861 5861 5861 5861 5861 5861 5861 5860 5860 5860 5861 5861 5862 5862 5863 5863 5863 5864 5864 5865 5865 5865 5865 5866 5866 5867 5867 5867 5868 5868 5868 5868 5869 5869 5869 5869 5869 5870
5860 5860 5859 5859 5859 5859 5859 5859 5859 5859 5859 5859 5859 5858 5859 5859 5859 5859 5859 5860 5860 5860 5861 5861 5862 5862 5862 5863 5863 5863 5864 5864 5864 5865 5865 5865 5866 5866 5866 5867 5867 5867 5867
5858 5858 5858 5858 5857 5857 5857 5857 5857 5857 5857 5857 5857 5856 5856 5856 5856 5856 5857 5857 5857 5857 5858 5858 5859 5859 5859 5859 5860 5860 5861 5861 5861 5862 5862 5862 5863 5863 5863 5864 5864 5864 5864
5856 5856 5856 5856 5855 5855 5854 5855 5855 5855 5855 5855 5854 5854 5854 5854 5854 5854 5854 5854 5854 5854 5855 5855 5855 5856 5856 5856 5856 5857 5857 5857 5858 5858 5858 5858 5859 5859 5860 5860 5860 5861 5861
5854 5854 5854 5854 5853 5853 5852 5852 5852 5852 5852 5852 5852 5852 5852 5851 5851 5851 5851 5851 5851 5851 5851 5851 5851 5852 5852 5853 5853 5853 5853 5854 5854 5854 5854 5855 5855 5856 5856 5857 5857 5857 5857
5851 5851 5851 5851 5851 5850 5850 5850 5850 5850 5850 5849 5849 5849 5849 5848 5848 5848 5848 5848 5848 5848 5847 5848 5848 5848 5848 5849 5849 5849 5849 5849 5850 5850 5850 5851 5851 5852 5852 5853 5853 5853 5854
5848 5848 5848 5848 5848 5847 5847 5847 5847 5847 5846 5846 5846 5846 5846 5846 5845 5844 5844 5844 5844 5844 5844 5844 5844 5844 5844 5844 5845 5845 5845 5845 5845 5846 5846 5846 5847 5847 5848 5848 5849 5849 5850
5844 5844 5844 5844 5844 5844 5844 5844 5843 5843 5843 5843 5842 5842 5842 5842 5841 5841 5840 5840 5840 5840 5839 5839 5839 5839 5840 5840 5840 5840 5841 5841 5841 5841 5842 5842 5842 5843 5843 5844 5844 5845 5845
5841 5841 5841 5841 5840 5840 5840 5840 5840 5839 5839 5839 5839 5838 5838 5838 5838 5837 5837 5836 5836 5835 5835 5835 5835 5835 5835 5835 5835 5836 5836 5836 5836 5837 5837 5837 5838 5838 5838 5839 5839 5839 5840
5837 5837 5837 5836 5836 5836 5836 5836 5836 5835 5835 5835 5834 5834 5833 5833 5833 5833 5833 5832 5831 5831 5830 5830 5830 5830 5830 5830 5831 5831 5831 5832 5832 5832 5832 5833 5833 5833 5833 5834 5834 5834 5835
5832 5832 5832 5832 5832 5832 5832 5831 5831 5831 5830 5830 5830 5829 5829 5828 5828 5827 5827 5827 5826 5826 5825 5825 5825 5825 5825 5825 5826 5826 5826 5826 5826 5827 5827 5827 5827 5827 5828 5828 5828 5829 5829
5828 5828 5827 5827 5827 5827 5827 5827 5826 5826 5826 5825 5825 5824 5824 5823 5822 5822 5821 5821 5820 5820 5820 5820 5819 5820 5820 5820 5820 5820 5820 5820 5820 5821 5821 5821 5821 5821 5822 5822 5823 5823 5823
5823 5823 5823 5823 5823 5823 5822 5822 5821 5821 5821 5820 5819 5819 5818 5818 5817 5816 5816 5815 5815 5815 5814 5814 5814 5814 5814 5814 5814 5814 5814 5814 5814 5814 5814 5815 5815 5815 5815 5816 5816 5817 5817
5818 5818 5818 5818 5818 5818 5817 5817 5816 5816 5815 5815 5814 5813 5813 5812 5811 5811 5810 5809 5809 5809 5809 5808 5808 5808 5808 5808 5808 5808 5808 5808 5807 5808 5808 5808 5808 5809 5809 5809 5810 5810 5810
5813 5813 5813 5813 5813 5813 5812 5812 5811 5811 5810 5809 5808 5807 5807 5806 5806 5805 5804 5803 5803 5803 5802 5802 5802 5802 5802 5802 5801 5801 5801 5801 5801 5801 5801 5801 5802 5802 5802 5802 5803 5803 5803
5807 5807 5807 5807 5807 5807 5807 5806 5806 5805 5804 5803 5802 5802 5801 5800 5799 5798 5798 5797 5796 5796 5796 5795 5795 5795 5795 5795 5794 5794 5793 5793 5793 5794 5794 5794 5794 5795 5795 5795 5795 5796 5796
5801 5801 5801 5801 5801 5801 5801 5801 5800 5799 5799 5798 5797 5796 5795 5794 5793 5792 5791 5790 5789 5789 5789 5788 5788 5788 5788 5788 5787 5787 5786 5786 5786 5786 5787 5787 5787 5787 5787 5788 5788 5788 5789
5795 5795 5795 5795 5795 5795 5795 5795 5794 5794 5793 5792 5791 5790 5789 5787 5786 5785 5783 5783 5782 5782 5781 5781 5781 5781 5781 5780 5780 5780 5779 5779 5779 5779 5779 5779 5779 5780 5780 5780 5781 5781 5781
5789 5789 5789 5789 5789 5789 5789 5789 5788 5788 5787 5786 5785 5784 5782 5780 5779 5777 5776 5775 5774 5774 5773 5773 5773 5773 5773 5773 5772 5772 5772 5772 5771 5771 5771 5771 5771 5771 5772 5772 5772 5772 5772
5784 5783 5783 5783 5783 5783 5783 5782 5782 5782 5781 5781 5779 5777 5776 5774 5772 5770 5769 5768 5766 5766 5765 5765 5765 5765 5765 5765 5765 5764 5764 5764 5763 5763 5763 5763 5763 5764 5763 5763 5763 5763 5763
5777 5777 5777 5777 5777 5777 5776 5776 5776 5776 5775 5774 5773 5771 5769 5767 5765 5763 5762 5761 5760 5759 5758 5758 5758 5758 5758 5758 5757 5757 5756 5756 5756 5756 5756 5756 5756 5756 5756 5756 5755 5755 5755
5771 5771 5771 5771 5771 5771 5771 5770 5770 5770 5769 5768 5767 5765 5762 5760 5758 5756 5754 5753 5753 5752 5752 5752 5752 5751 5751 5751 5750 5749 5749 5748 5749 5749 5748 5749 5748 5748 5748 5748 5747 5747 5747
5765 5765 5765 5765 5765 5765 5765 5765 5764 5764 5763 5762 5760 5758 5756 5754 5752 5750 5748 5747 5746 5746 5745 5745 5745 5745 5745 5744 5743 5743 5742 5742 5742 5742 5742 5742 5742 5741 5741 5741 5740 5740 5740
5759 5759 5759 5758 5759 5759 5759 5758 5757 5757 5756 5755 5753 5752 5750 5748 5746 5744 5742 5741 5740 5739 5739 5738 5738 5738 5738 5738 5737 5737 5736 5736 5736 5736 5736 5736 5736 5735 5734 5734 5733 5733 5733
5753 5753 5753 5753 5753 5753 5752 5752 5751 5751 5750 5749 5747 5745 5743 5742 5740 5738 5736 5735 5734 5734 5733 5732 5732 5732 5732 5732 5731 5731 5730 5730 5730 5730 5730 5729 5729 5728 5728 5727 5726 5726 5725
Wind_Speed
8 8 8 8 8 8 8 8 8 8 8 9 9 10 10 10 11 11 11 10 11 12 12 13 13 12 12 12 13 12 11 12 12 12 11 11 11 10 11 10 10 10 11
8 9 9 9 9 9 9 8 8 9 9 10 9 9 9 10 11 11 12 12 12 13 14 14 13 13 13 12 12 12 13 13 12 12 13 13 12 12 11 11 12 11 11
9 10 10 10 10 10 10 9 9 10 10 10 9 9 9 10 10 11 12 13 13 13 13 14 13 14 13 14 13 13 13 14 13 13 13 13 14 13 13 12 12 13 13
10 10 11 11 11 11 10 10 10 10 10 10 10 10 10 10 11 12 13 13 14 13 13 13 14 14 14 14 15 14 13 14 14 15 14 14 14 14 14 14 14 13 13
10 11 11 11 11 12 11 11 11 11 11 11 11 11 11 11 12 12 13 14 13 13 13 14 14 14 15 15 16 16 15 15 15 16 16 15 15 15 15 15 15 14 14
11 11 11 11 11 11 11 11 12 11 11 11 12 12 12 12 13 12 13 14 14 13 14 14 15 15 16 16 16 16 16 16 16 16 17 16 16 16 16 16 15 15 15
12 12 12 12 12 12 11 11 12 12 12 12 13 13 13 12 12 12 13 13 14 14 14 14 15 16 16 17 17 17 17 17 17 17 17 17 17 16 16 16 16 16 16
13 13 13 13 13 12 12 12 12 12 13 12 12 13 13 13 13 14 14 15 14 14 14 15 15 15 16 17 18 17 18 18 18 19 18 18 18 18 18 18 17 17 18
14 14 14 14 14 14 14 13 13 13 14 14 14 14 14 15 15 15 17 16 16 15 16 16 16 16 16 17 17 18 19 18 19 19 19 19 20 20 20 20 19 19 19
16 15 15 15 15 15 15 14 14 15 15 15 15 15 16 16 17 17 17 17 17 18 18 17 17 18 17 17 17 18 19 19 20 20 20 21 21 21 21 21 20 21 21
16 16 16 16 16 16 16 16 17 17 17 17 16 17 18 18 19 19 20 19 20 20 20 19 19 19 18 18 19 19 19 20 20 20 21 21 21 21 21 21 22 22 22
16 16 16 16 17 17 17 16 17 18 18 18 18 18 19 20 20 20 20 21 21 22 21 21 20 20 20 19 20 20 21 21 22 21 21 22 22 22 22 22 22 23 23
17 18 18 16 17 17 17 17 17 18 19 20 20 20 20 20 21 21 22 22 22 22 22 21 21 21 20 20 21 21 22 21 22 22 22 22 23 23 24 23 24 24 24
19 18 19 18 17 17 17 18 18 18 19 19 20 20 21 21 21 22 22 22 22 22 22 22 22 22 22 22 22 22 22 22 22 23 23 24 24 24 24 25 25 25 25
19 19 18 18 18 18 18 19 19 19 19 20 20 20 20 21 22 22 22 22 22 21 22 22 22 23 23 23 23 24 24 24 23 23 24 24 24 24 24 25 26 26 26
20 20 19 19 19 19 19 20 19 20 20 20 20 21 22 22 23 22 22 22 23 23 23 23 23 24 24 24 24 25 25 25 24 24 24 25 25 25 25 26 26 26 26
22 21 20 20 20 20 20 20 20 20 20 20 20 21 22 23 23 23 24 24 24 24 24 24 25 25 24 25 25 25 25 25 25 25 25 26 26 27 27 27 26 26 26
22 22 21 21 21 20 20 21 20 20 20 20 21 22 23 24 23 24 24 24 25 25 25 25 25 26 26 26 26 26 25 25 25 26 27 27 27 27 27 27 27 26 27
22 22 22 22 20 20 21 21 21 21 21 21 21 22 23 24 23 24 24 25 25 25 26 26 26 26 26 26 26 26 26 26 26 27 27 28 28 28 28 28 28 29 29
21 21 21 21 21 21 21 22 22 21 22 22 22 22 23 23 23 24 24 24 25 25 25 25 26 26 27 27 27 27 27 27 28 28 28 27 27 27 27 27 28 29 30
21 21 21 21 21 21 21 21 21 21 21 22 23 23 22 23 23 24 24 24 24 25 25 25 25 25 26 26 26 26 27 27 28 27 27 26 26 27 27 27 27 27 28
20 20 21 21 21 21 20 20 20 20 21 21 22 22 23 23 23 23 23 23 23 23 24 24 24 24 24 25 25 25 25 26 26 26 26 25 26 26 25 25 25 26 27
20 20 21 21 21 21 21 20 21 20 20 21 21 22 23 23 23 23 23 23 23 23 23 23 23 23 23 22 23 23 23 23 23 23 24 24 24 25 25 24 24 25 25
21 21 20 20 20 20 20 20 21 21 21 21 22 22 22 22 22 22 22 22 21 21 21 22 22 22 21 21 21 22 22 22 21 21 22 22 23 24 25 24 24 24 24
20 20 20 20 20 20 20 21 22 23 21 22 23 23 22 22 22 22 22 21 21 21 22 22 22 21 20 20 20 20 21 21 21 21 21 22 22 23 24 25 24 24 24
20 20 20 20 20 20 21 21 22 22 22 22 22 22 22 21 21 20 20 21 21 21 21 21 21 21 20 20 20 20 20 20 21 21 22 22 22 22 22 23 23 23 23
Wind_Direction
272 273 275 274 273 271 261 259 262 263 265 263 260 253 249 253 254 251 253 256 259 258 255 258 251 251 256 258 256 255 254 257 257 258 259 262 263 260 260 257 256 255 249
269 270 273 274 270 268 266 267 268 270 268 268 263 255 252 257 256 256 256 258 261 259 257 255 258 258 260 263 261 256 255 256 255 255 256 257 258 261 263 263 264 262 261
271 272 274 273 268 269 268 267 270 269 268 268 263 259 257 261 262 259 257 260 263 261 260 260 261 260 262 263 261 260 257 254 253 252 253 255 257 261 266 268 270 268 265
273 277 281 279 273 268 265 263 267 269 269 269 268 262 259 263 264 258 258 262 263 262 261 261 261 260 258 260 261 260 261 257 255 254 255 255 255 262 264 266 267 267 268
269 273 278 278 275 271 266 261 265 269 272 271 270 269 265 263 264 261 261 264 267 267 265 263 262 262 262 261 259 258 259 258 257 257 258 257 257 260 262 266 265 265 267
269 273 274 275 276 272 269 265 265 269 272 274 274 272 271 265 263 263 264 267 270 269 268 266 265 266 266 265 263 261 259 258 258 261 260 259 259 263 264 266 266 265 264
268 271 270 270 270 269 268 268 268 271 270 273 274 270 271 270 267 269 268 270 272 270 270 268 266 265 264 264 263 263 261 259 260 263 262 261 260 262 265 265 266 263 262
267 267 268 267 266 266 267 266 267 267 269 271 271 271 270 272 274 275 271 271 272 270 271 270 270 268 265 262 260 261 262 262 263 265 265 263 261 260 261 263 264 263 261
265 268 269 268 265 264 265 264 267 269 269 269 270 272 269 269 272 275 275 273 272 271 271 272 272 269 267 264 259 262 264 262 265 265 263 262 262 261 262 261 262 264 262
263 266 269 270 267 266 265 265 268 270 271 271 271 272 273 272 272 274 275 274 271 271 272 272 271 268 266 265 264 265 264 264 265 262 261 261 262 261 263 263 263 265 264
262 263 267 270 267 267 267 267 268 270 272 273 273 274 275 275 274 275 274 273 272 273 275 274 274 269 264 264 263 265 265 265 265 263 262 261 261 261 261 262 263 264 265
262 263 266 269 267 268 268 270 271 271 272 274 274 274 275 275 275 275 275 274 273 274 273 274 274 269 265 266 265 266 268 266 265 264 263 262 261 260 260 261 262 263 264
265 263 267 270 270 270 270 272 272 270 273 274 273 272 272 273 275 276 275 276 275 274 272 272 272 268 266 268 268 269 270 268 265 266 266 264 264 262 260 261 262 263 263
265 264 267 269 271 272 272 273 273 272 273 274 273 271 271 272 274 275 277 277 274 272 272 271 271 267 267 268 268 269 269 270 269 268 266 264 263 263 261 260 262 262 263
263 266 269 270 271 272 274 276 275 274 275 275 273 271 270 271 273 277 277 276 274 272 271 270 268 266 267 267 266 267 269 270 270 268 266 265 265 265 263 262 262 264 264
264 266 268 269 269 270 273 275 277 275 274 274 273 272 272 272 274 276 275 274 272 273 270 268 268 267 266 266 266 267 267 269 269 268 268 267 266 264 263 264 263 264 264
263 265 268 268 267 269 271 274 276 275 273 273 274 275 275 275 276 276 275 273 272 271 270 268 266 266 267 267 268 268 267 267 268 267 268 267 266 265 264 264 265 266 267
262 265 267 267 267 269 271 273 275 275 273 275 277 277 278 279 279 276 275 274 272 270 270 268 267 266 267 268 268 268 268 269 268 268 268 268 268 266 265 265 267 267 267
262 264 267 267 267 268 270 271 272 275 275 276 278 279 281 282 280 278 277 275 272 269 269 268 267 267 268 268 268 269 270 270 270 270 269 268 268 267 266 265 266 267 268
264 266 268 268 266 268 270 271 272 275 277 279 281 282 284 283 282 278 278 277 273 270 270 269 268 267 266 267 268 269 270 271 270 271 270 269 268 267 267 267 267 267 268
265 267 268 269 269 269 270 271 271 274 277 279 282 285 285 286 284 281 277 276 273 271 271 272 270 269 268 267 268 271 272 271 271 271 269 269 268 268 268 268 269 269 269
266 268 271 271 269 269 270 271 269 274 277 280 285 286 286 286 285 282 278 276 275 273 273 272 271 271 271 271 269 270 271 270 269 269 268 267 269 269 268 269 270 270 269
268 270 272 271 269 269 271 270 268 273 277 282 285 287 287 286 285 284 280 278 276 275 273 271 270 271 273 274 270 271 271 272 270 269 267 268 270 271 270 271 270 271 271
269 269 269 270 269 270 272 271 271 274 279 284 286 287 287 287 287 284 282 281 279 278 275 271 270 272 272 273 273 271 269 269 267 268 269 271 272 273 272 271 271 272 272
268 268 267 268 270 272 275 275 275 274 279 283 286 286 286 287 287 285 281 280 280 277 275 273 271 271 271 272 274 274 271 268 268 269 272 273 274 274 274 273 273 273 272
268 268 268 269 270 272 276 279 279 277 279 282 285 284 284 286 286 284 283 281 280 278 276 274 274 273 274 276 277 276 274 271 270 271 273 273 274 276 275 274 275 275 274